一网星座-0298星 (ONEWEB-0298 )

导读

ONEWEB-0298是英国OneWeb星座组网的低轨宽带通信卫星,由空中客车防务及航天公司联合生产,单星质量147千克,配备Ku波段天线,于2021年8月21日由联盟-2.1b火箭从拜科努尔发射场发射入轨。它属于OneWeb第一代低轨星座,旨在为全球地面网络覆盖不足区域提供低延迟互联网接入,可服务应急通信、海上、空中互联及偏远地区网络覆盖,助力OneWeb全球宽带星座组网进程。

Basic Information
目录编号:
49087
目录名称:
ONEWEB-0298
国际标识:
2021-075N
轨道中心:
EARTH
卫星名称:
一网星座-0298星
卫星全名:
一网星座-0298星 (ONEWEB-0298 )
卫星状态:
在轨 (已飞行1802 天)
发射日期:
2021-08-21 UTC
国别 :
英国 (GB)
星等 :
--
Orbit Information
数据来源 国际轨道数据 AOE轨道数据
星历时间 2026-07-27T05:45:42+0800
1天前
查看轨道信息
2026-07-26T05:00:00+0800
2天前
查看轨道信息
半长轴 7571.845km 7571.848km
偏心率 0.0001715 0.0001695
轨道倾角 87.916° 87.918°
近地点辐角 95.392° 87.267°
升交点赤经 357.968° 358.173°
平近点角 264.741° 61.599°
近地点 1192.409km 1192.427km
远地点 1195.007km 1194.995km
周期 109.285分钟 109.285分钟
每日圈数 13.176505 13.176497
Detailed Information
平衡模式:
三轴稳定
覆盖范围:
全球
运营商:
一网卫星公司
运营商所在国:
英国
制造商(研发单位):
一网卫星公司
制造商所在国:
英国
使用方式:
暂无
Satellite Introduction
OneWeb卫星网络由648颗重约125公斤的微型卫星组成,运行在1200公里的轨道上。 每颗卫星都能够提供至少每秒8千兆位的吞吐量,以使用其高吞吐量的Ku频段有效载荷为家庭和移动平台提供互联网接入。该卫星仍在工作。
2D Orbit Map
3D Orbit Map
Orbit Altitude Analysis Chart
Orbit Inclination Analysis Chart
Orbit Comprehensive Analysis Chart
View Comprehensive Chart